Regional Weather Roundup
Issued by NWS

Home | Current Version | Previous Version | Text Only | Print | Product List | Glossary On
Versions: 1 2 3 4 5 6 7 8 9 10 11 12 13 14 15 16 17 18 19 20 21 22 23 24 25 26 27 28 29 30 31 32 33 34 35 36 37 38 39 40 41 42 43 44 45 46 47 48 49 50
000
ASUS45 KTFX 282019
RWRMT
MONTANA HOURLY WEATHER ROUNDUP
NATIONAL WEATHER SERVICE GREAT FALLS MT
219 PM MDT MON JUL 28 2014

NOTE: "FAIR" INDICATES FEW OR NO CLOUDS BELOW 12000 FEET WITH NO
SIGNIFICANT WEATHER AND/OR OBSTRUCTIONS TO VISIBILITY.

* THESE STATIONS ARE NOT UNDER NWS QUALITY CONTROL. THEY DO NOT
   REPORT WEATHER SUCH AS PRECIPITATION OR FOG.

MTZ001>007-043-282100-
WEST OF THE DIVIDE
CITY           SKY/WX    TMP DP  RH WIND       PRES   REMARKS
KALISPELL      PTSUNNY   79  50  36 NE9       30.18F
MISSOULA       PTCLDY    88  45  22 VRB3      30.17F
BUTTE          CLOUDY    81  36  20 VRB3      30.30F
MULLAN PASS    PTCLDY    79  43  28 CALM      30.35F
* ESSEX        N/A       78  47  34 N4         N/A
* LINCOLN      N/A       86  47  26 NE2G7      N/A
* LOOKOUT PASS N/A       83  48  30 SW4G10     N/A
* POLSON       N/A       84  47  28 SW2        N/A
* RONAN APT    PTCLDY    79  50  36 N/A        N/A
* SEELEY LAKE  N/A       83  41  23 W5         N/A
* THOMP F APT  PTCLDY    84  33  16 S9G15      N/A
* YAAK HILL    N/A       89  50  26 NW1        N/A
$$

MTZ008-052>055-282100-
SOUTHWEST MONTANA
CITY           SKY/WX    TMP DP  RH WIND       PRES   REMARKS
BOZEMAN        CLOUDY    81  46  29 NW9       30.24S
DILLON         CLOUDY    72  50  46 N8        30.28F
W YELLOWSTONE  RAIN      82  32  16 S3        30.35F
* THREE FORKS  CLOUDY    82  48  31 N/A        N/A
* BOULDER HILL N/A       80  43  27 SW4        N/A
* MONIDA PASS  N/A       82  30  15 SE1G9      N/A
* RAYNOLDS PAS N/A       84  60  44 S2         N/A   HI  84
* WHITEHALL    N/A       81  47  30 SW5        N/A
* WISE RIVER   N/A       73  41  32 N4         N/A
$$

MTZ009>010-012-014-046-048-049-054-282100-
EAST SLOPES AND CENTRAL MONTANA
CITY           SKY/WX    TMP DP  RH WIND       PRES   REMARKS
CUT BANK       PTCLDY    84  45  26 VRB6      30.23F
GREAT FALLS    PTCLDY    88  39  18 E6        30.20F
HELENA         PTCLDY    90  39  17 VRB5      30.19F
* CONRAD       SUNNY     84  54  36 NE5        N/A
* DEARBORN     N/A       84  45  26 N11G18     N/A
* EAST GLACIER N/A       77  45  32 E4G12      N/A
* ROGERS PASS  N/A       81  39  22 SW5G13     N/A
* SAINT MARY   N/A       81  48  32 N7         N/A
* SWEET GRASS  N/A       87  41  20 S14        N/A
* WHITE SULPH  N/A       84  44  25 NE6G12     N/A
$$

MTZ011-013-016-021-035-040-045-047-050-051-282100-
NORTH CENTRAL MONTANA
CITY           SKY/WX    TMP DP  RH WIND       PRES   REMARKS
HAVRE          PTCLDY    91  39  16 E14       30.17F
LEWISTOWN      PTCLDY    90  41  18 E16G23    30.24F
* FORT BENTON  SUNNY     91  41  17 E7        30.16F
* CHESTER      N/A       86  38  18 SE6G12     N/A
* DENTON       N/A       91  47  22 NE6G11     N/A
* JUDITH GAP   N/A       84  47  28 SE15G21    N/A
* LOMA         N/A       91  41  17 E11G19     N/A
$$

MTZ017>020-022>027-061-062-282100-
NORTHEAST MONTANA
CITY           SKY/WX    TMP DP  RH WIND       PRES   REMARKS
GLASGOW        SUNNY     88  45  22 VRB6      30.22F
GLENDIVE       SUNNY     82  48  31 N8        30.26F
JORDAN         SUNNY     90  39  17 E10       30.22F
SIDNEY         SUNNY     82  52  35 E7        30.26F
WOLF POINT     PTCLDY    86  46  25 S7        30.23F
* BEAVER HILL  N/A       79  54  42 E6G11      N/A
* CIRCLE       N/A       84  51  32 SE4        N/A
* LINDSAY DVD  N/A       80  52  38 N5         N/A
* NAVAJO       N/A       79  53  41 W6         N/A
$$

MTZ028>042-056>058-282100-
SOUTHCENTRAL AND SOUTHEAST MONTANA
CITY           SKY/WX    TMP DP  RH WIND       PRES   REMARKS
BAKER          SUNNY     84  46  26 N/A       30.28F
BILLINGS       SUNNY     88  46  23 NE10G18   30.22F
LIVINGSTON     PTCLDY    88  43  21 E13G22    30.24F
MILES CITY     SUNNY     88  46  23 E10       30.22F
* LAUREL APT   SUNNY     86  48  27 N8         N/A
* ROUNDUP APT  PTCLDY    88  43  21 E9         N/A
* ALZADA       N/A       81  47  30 NE5        N/A
* HYSHAM       N/A       86  49  28 E9G19      N/A
* LAME DEER    N/A       81  49  33 E6G17      N/A
* REED POINT   N/A       89  50  26 NE7G15     N/A
* ROSCOE HILL  N/A       80  44  28 NE11       N/A
$$

REGIONAL REPORTS...DAKOTAS
CITY           SKY/WX    TMP DP  RH WIND       PRES   REMARKS
WILLISTON      PTSUNNY   81  52  37 VRB6      30.27F
DICKINSON      PTCLDY    77  52  42 NE6       30.29F
CROSBY         SUNNY     73  55  53 CALM      30.29F
TIOGA          CLOUDY    73  55  53 NE5       30.32F
WATFORD CITY   PTCLDY    77  52  42 CALM      30.26F
BISMARCK       SUNNY     75  48  39 N7        30.30F
GRAND FORKS    PTSUNNY   73  55  53 N12       30.23F
FARGO          CLOUDY    73  52  48 NW5       30.24F
BUFFALO SD     SUNNY     79  52  39 VRB5      30.23F
RAPID CITY     SUNNY     79  57  47 SE10      30.29F
$$

REGIONAL REPORTS...WYOMING/IDAHO/WASHINGTON
CITY           SKY/WX    TMP DP  RH WIND       PRES   REMARKS
GILLETTE       SUNNY     84  48  29 SE10      30.28F
SHERIDAN       SUNNY     88  48  25 E7        30.25F
YELLOWSTONE LA PTSUNNY   70  48  46 CALM      30.48F
SALMON         CLOUDY    79  37  22 NW6       30.17F
MULLAN PASS    PTCLDY    79  43  28 CALM      30.35S
SAND POINT     SUNNY     82  52  35 SE6       30.11F
SPOKANE        PTCLDY    91  43  19 E7        30.10F
$$

REGIONAL REPORTS...ALBERTA
CITY           SKY/WX    TMP DP  RH WIND       PRES   REMARKS
CALGARY        PTSUNNY   79  55  44 E7        30.23F
LETHBRIDGE     PTCLDY    81  55  41 VRB2      30.22F HI  81
MEDICINE HAT   PTSUNNY   88  46  23 CALM      30.19F
EDMONTON       SUNNY     79  59  50 SE12      30.18F
WATERTON GATE  N/A       81  48  32 NE7        N/A
CARDSTON       N/A       79  57  47 N3         N/A
MILK RIVER     N/A       88  39  18 SE9        N/A
$$

REGIONAL REPORTS...SASKATCHEWAN
CITY           SKY/WX    TMP DP  RH WIND       PRES   REMARKS
SWIFT CURRENT  PTCLDY    79  48  34 E6        30.25F
MOOSE JAW      SUNNY     77  59  54 NW6       30.27S
REGINA         PTSUNNY   75  57  54 CALM      30.26F
VAL MARIE      N/A       81  50  34 NW3        N/A
ASSINIBOIA     N/A       77  50  39 W5         N/A
CORONACH       N/A       79  50  36 E5         N/A

$$




USA.gov is the U.S. government's official web portal to all federal, state and local government web resources and services.